QTR42E OTHH-VRMM

Flight info

Callsign QTR42E
Flight time N/A
Altitude 35000
Route BUNDU B415 SIXIV N318 LABRI/N0491F390 N318 EGROK/N0486F410 N318 TOLDA P570 KITAL L894 ELBET ELBET1B
Aircraft A359/H-SDE2E3GHIJ3J4J5LM1ORWXY/LB1D1

Departure

Time 2026-05-05 14:31
Airport Hamad International Airport (OTHH)

Arrival

Time N/A
Airport Velana International Airport (VRMM)
Time Latitude Longitude Altitude Speed Heading
2026-05-05 13:33 25.26399 51.61123 36 ft 0 kts 68°
2026-05-05 14:10 25.26391 51.61101 35 ft 4 kts 68°
2026-05-05 14:10 25.26383 51.61077 36 ft 2 kts 69°
2026-05-05 14:10 25.26372 51.61053 36 ft 4 kts 47°
2026-05-05 14:10 25.26352 51.61039 35 ft 4 kts 356°
2026-05-05 14:11 25.26328 51.61046 34 ft 4 kts 338°
2026-05-05 14:11 25.26311 51.61054 36 ft 0 kts 338°
2026-05-05 14:17 25.26317 51.61051 36 ft 2 kts 339°
2026-05-05 14:17 25.26347 51.61038 36 ft 7 kts 339°
2026-05-05 14:17 25.26406 51.61012 36 ft 11 kts 338°
2026-05-05 14:17 25.26492 51.60975 36 ft 15 kts 338°
2026-05-05 14:18 25.26579 51.60913 36 ft 16 kts 302°
2026-05-05 14:18 25.26626 51.60798 36 ft 17 kts 293°
2026-05-05 14:18 25.26675 51.60670 36 ft 13 kts 292°
2026-05-05 14:18 25.26678 51.60586 36 ft 12 kts 254°
2026-05-05 14:19 25.26646 51.60491 36 ft 14 kts 246°
2026-05-05 14:19 25.26637 51.60384 36 ft 15 kts 307°
2026-05-05 14:19 25.26732 51.60327 35 ft 16 kts 337°
2026-05-05 14:19 25.26843 51.60278 35 ft 18 kts 338°
2026-05-05 14:20 25.26953 51.60248 36 ft 15 kts 19°
2026-05-05 14:20 25.27009 51.60344 36 ft 16 kts 68°
2026-05-05 14:20 25.27053 51.60462 36 ft 17 kts 68°
2026-05-05 14:20 25.27100 51.60589 36 ft 19 kts 68°
2026-05-05 14:21 25.27150 51.60728 36 ft 20 kts 68°
2026-05-05 14:21 25.27203 51.60876 36 ft 21 kts 68°
2026-05-05 14:21 25.27261 51.61034 36 ft 23 kts 68°
2026-05-05 14:21 25.27321 51.61199 36 ft 24 kts 68°
2026-05-05 14:22 25.27385 51.61373 36 ft 25 kts 68°
2026-05-05 14:22 25.27427 51.61498 36 ft 11 kts 85°
2026-05-05 14:22 25.27378 51.61558 36 ft 12 kts 153°
2026-05-05 14:22 25.27295 51.61597 36 ft 14 kts 158°
2026-05-05 14:23 25.27195 51.61642 36 ft 16 kts 158°
2026-05-05 14:23 25.27084 51.61691 36 ft 18 kts 158°
2026-05-05 14:23 25.26959 51.61747 36 ft 20 kts 159°
2026-05-05 14:23 25.26821 51.61806 35 ft 22 kts 158°
2026-05-05 14:24 25.26671 51.61872 35 ft 24 kts 158°
2026-05-05 14:24 25.26512 51.61944 36 ft 26 kts 158°
2026-05-05 14:24 25.26343 51.62019 36 ft 27 kts 158°
2026-05-05 14:24 25.26165 51.62096 36 ft 28 kts 158°
2026-05-05 14:25 25.25979 51.62177 36 ft 29 kts 158°
2026-05-05 14:25 25.25787 51.62262 36 ft 31 kts 158°
2026-05-05 14:25 25.25610 51.62341 36 ft 18 kts 158°
2026-05-05 14:25 25.25501 51.62390 36 ft 13 kts 151°
2026-05-05 14:26 25.25488 51.62478 35 ft 13 kts 72°
2026-05-05 14:26 25.25506 51.62532 34 ft 0 kts 70°
2026-05-05 14:28 25.25517 51.62559 34 ft 7 kts 64°
2026-05-05 14:28 25.25559 51.62624 33 ft 13 kts 40°
2026-05-05 14:28 25.25652 51.62629 33 ft 9 kts 343°
2026-05-05 14:29 25.25655 51.62628 33 ft 0 kts 342°
2026-05-05 14:30 25.25661 51.62625 33 ft 6 kts 341°
2026-05-05 14:30 25.25852 51.62544 33 ft 64 kts 338°
2026-05-05 14:30 25.26478 51.62268 33 ft 128 kts 338°
2026-05-05 14:30 25.27482 51.61823 46 ft 180 kts 337°
2026-05-05 14:31 25.28679 51.61233 577 ft 190 kts 338°
2026-05-05 14:31 25.29870 51.60676 1494 ft 180 kts 339°
2026-05-05 14:31 25.31010 51.60172 2266 ft 172 kts 341°
2026-05-05 14:31 25.32176 51.59693 2594 ft 189 kts 342°
2026-05-05 14:32 25.33499 51.59201 2783 ft 212 kts 350°
2026-05-05 14:32 25.34929 51.59512 3171 ft 220 kts 34°
2026-05-05 14:32 25.35844 51.60842 3707 ft 223 kts 72°
2026-05-05 14:32 25.35896 51.62558 3962 ft 228 kts 95°
2026-05-05 14:33 25.35799 51.64312 3998 ft 228 kts 87°
2026-05-05 14:33 25.35951 51.66057 3995 ft 228 kts 78°
2026-05-05 14:33 25.36306 51.67768 3999 ft 228 kts 73°
2026-05-05 14:33 25.36730 51.69460 3990 ft 229 kts 77°
2026-05-05 14:34 25.36737 51.71229 4017 ft 239 kts 98°
2026-05-05 14:34 25.36372 51.73143 3998 ft 267 kts 102°
2026-05-05 14:34 25.35938 51.75148 4004 ft 274 kts 102°
2026-05-05 14:34 25.35606 51.76976 4000 ft 274 kts 93°
2026-05-05 14:35 25.35297 51.79062 3995 ft 276 kts 93°
2026-05-05 14:35 25.34959 51.81148 4002 ft 276 kts 94°
2026-05-05 14:35 25.34588 51.83236 4000 ft 278 kts 95°
2026-05-05 14:35 25.34196 51.85328 3998 ft 278 kts 95°
2026-05-05 14:36 25.33791 51.87424 4077 ft 280 kts 96°
2026-05-05 14:36 25.33376 51.89543 4610 ft 283 kts 96°
2026-05-05 14:36 25.32965 51.91638 5299 ft 283 kts 95°
2026-05-05 14:36 25.32544 51.93772 5926 ft 286 kts 95°
2026-05-05 14:37 25.32116 51.95925 6523 ft 288 kts 96°
2026-05-05 14:37 25.31696 51.98111 7064 ft 293 kts 96°
2026-05-05 14:37 25.31251 52.00320 7656 ft 297 kts 96°
2026-05-05 14:37 25.30798 52.02559 8265 ft 300 kts 96°
2026-05-05 14:38 25.30348 52.04791 8879 ft 304 kts 95°